HELLAS-SAT 2

Last updated on Thu Jul 03 2025 00:02:44 GMT+0000 (Coordinated Universal Time)

1 27811U 03020A 25183.01850196 -.00000081 00000+0 00000+0 0 9991 2 27811 6.4806 72.0766 0003510 50.1104 154.7452 1.00272405 39330
UTC large
Height (km)
Speed (km/s)
/
Latitude / Longitude
Inclination (degrees)
Orbital Period (minutes)
Azimuth
Elevation
Range (km)
Doppler Factor

Next 0 passes for location: London (51.5072 / 0.1276)

Sorry there are no passes over London.